Regional Weather Roundup
Issued by NWS

Home | Current Version | Previous Version | Text Only | Print | Product List | Glossary On
Versions: 1 2 3 4 5 6 7 8 9 10 11 12 13 14 15 16 17 18 19 20 21 22 23 24 25 26 27 28 29 30 31 32 33 34 35 36 37 38 39 40 41 42 43 44 45 46 47 48 49 50
000
ASUS43 KLMK 221010
RWRKY
KENTUCKY REGIONAL WEATHER ROUNDUP
NATIONAL WEATHER SERVICE LOUISVILLE KY
600 AM EDT TUE JUL 22 2014

NOTE "FAIR" INDICATES FEW OR NO CLOUDS BELOW 12,000 FEET
WITH NO SIGNIFICANT WEATHER AND/OR OBSTRUCTIONS TO VISIBILITY.

KYZ001>023-026-027-061>063-070>075-221100-
WESTERN AND SOUTH CENTRAL KENTUCKY

CITY           SKY/WX    TMP DP  RH WIND       PRES   REMARKS
PADUCAH        CLEAR     65  62  90 CALM      30.08R
HENDERSON      CLEAR     64  61  88 CALM      30.08R
OWENSBORO      CLEAR     68  66  93 CALM      30.08S FOG
HOPKINSVILLE   CLEAR     69  69 100 E1        30.08R
BOWLING GREEN  CLEAR     71  67  87 CALM      30.09R
GLASGOW        PTCLDY    69  69 100 CALM      30.10R
$$

KYZ024-025-028>034-038-045-046-053-221100-
NORTH CENTRAL KENTUCKY

CITY           SKY/WX    TMP DP  RH WIND       PRES   REMARKS
LOUISVILLE/SDF PTCLDY    72  68  87 CALM      30.09R
LOUISVILLE/LOU CLEAR     70  68  93 CALM      30.09R FOG
FORT KNOX      CLEAR     68  67  96 CALM      30.09R
$$

KYZ035>037-039>044-047>052-055>060-089>105-221100-
NORTHEAST KENTUCKY

CITY           SKY/WX    TMP DP  RH WIND       PRES   REMARKS
LEXINGTON      CLEAR     70  67  90 CALM      30.11R
COVINGTON      CLEAR     74  67  78 N5        30.11R
FRANKFORT      CLEAR     67  65  93 CALM      30.09R
$$

KYZ054-064>069-076>088-106>120-221100-
SOUTHEAST KENTUCKY

CITY           SKY/WX    TMP DP  RH WIND       PRES   REMARKS
JACKSON        CLEAR     71  66  84 SE3       30.14R
LONDON         PTCLDY    70  67  90 CALM      30.13R
SOMERSET       CLEAR     70  70 100 CALM      30.12R
MIDDLESBORO    CLEAR     68  66  94 CALM      30.14R
MONTICELLO     MOSUNNY   67  67 100 CALM      30.13R FOG
$$




USA.gov is the U.S. government's official web portal to all federal, state and local government web resources and services.